GFSNW_prec_kuchsnow_240.txt.gz
Snowfall_Accumulation
0.0 0.0 0.0 0.0 0.0 0.0 0.0 0.0 24.3 0.0 0.0 5.4 15.2 22.4 4.8 0.0 0.0 0.0 0.0 0.0 0.0 0.0 0.0 0.0 0.0 0.0 0.0 0.0 0.0 0.0 0.0 0.2 0.7 0.0 0.0 0.0 0.0 1.1 4.9 14.4 15.7 8.9 7.8 0.5
0.0 0.0 0.0 0.0 0.0 0.0 0.0 4.6 9.9 0.0 0.0 59.0 44.9 2.9 0.4 0.0 0.0 0.0 0.0 0.1 0.0 0.0 0.0 0.3 0.0 0.0 0.0 0.0 0.0 0.0 0.0 2.8 3.5 0.0 0.0 0.0 0.6 0.8 1.3 5.8 9.5 7.3 13.4 1.0
0.0 0.0 0.0 0.0 0.0 0.0 0.0 5.5 61.9 11.2 0.8 4.2 6.7 6.2 2.3 1.5 0.0 0.0 0.0 0.0 0.0 0.0 0.2 0.0 0.1 0.0 0.0 0.0 0.0 0.0 0.0 1.8 2.0 3.3 0.9 0.4 0.5 0.1 0.0 2.3 9.5 2.8 2.2 0.1
0.0 0.0 0.0 0.0 0.0 0.0 0.0 19.8 38.0 0.0 36.4 22.3 4.7 1.4 1.1 1.6 2.6 0.0 0.0 0.2 0.3 1.0 4.2 1.7 0.8 0.0 0.0 0.0 0.0 0.0 0.1 3.7 0.1 0.0 0.0 0.1 0.0 0.0 0.1 1.4 1.7 6.5 0.3 0.3
0.0 0.0 0.0 0.0 0.0 0.0 0.5 35.5 15.4 1.3 0.7 0.2 2.5 2.9 5.2 2.7 2.5 2.9 1.6 1.7 1.0 0.6 6.1 2.6 5.6 1.7 0.2 0.1 0.0 0.0 0.1 8.7 2.1 0.9 0.1 0.1 0.6 0.1 0.2 0.1 0.1 0.4 0.3 0.6
0.0 0.0 0.0 0.0 0.0 0.0 0.7 1.3 0.0 1.2 1.8 3.4 4.0 3.7 1.2 1.0 2.5 0.4 0.5 3.0 4.8 3.3 1.5 0.1 0.0 0.0 0.0 0.0 0.0 1.0 1.7 3.8 5.5 7.3 0.1 0.1 4.5 0.2 0.0 1.3 1.9 2.1 1.0 0.8
0.0 0.0 0.0 0.0 0.0 0.0 0.0 0.0 0.0 11.7 17.2 3.9 1.4 0.4 0.4 2.2 1.4 2.6 0.3 0.0 0.7 0.0 0.0 0.0 0.0 0.0 0.0 0.0 0.0 0.0 0.7 2.9 5.8 12.0 2.6 25.3 0.1 0.0 0.0 1.4 0.9 0.0 0.1 0.0
0.0 0.0 0.0 0.0 0.0 0.0 0.0 0.0 0.0 8.6 20.4 1.9 1.8 1.8 2.2 0.9 0.9 1.8 0.7 0.1 0.0 0.0 0.0 5.8 10.7 8.7 5.0 4.8 0.0 0.0 0.0 2.1 15.8 19.3 10.6 0.4 0.4 0.0 0.3 1.1 1.1 0.3 0.4 0.1
0.0 0.0 0.0 0.0 0.0 0.0 0.0 0.0 0.0 3.3 20.7 6.8 0.6 2.2 0.4 3.4 3.7 3.9 4.2 0.0 0.0 0.0 4.2 11.1 24.0 23.2 8.7 8.6 2.9 0.0 0.1 0.8 8.9 21.1 24.3 11.7 1.7 0.3 0.0 0.0 5.6 1.5 0.5 0.2
0.0 0.0 0.0 0.0 0.0 0.0 0.0 0.0 0.0 0.0 18.9 0.5 0.0 4.8 2.1 1.0 1.4 5.2 3.9 2.2 1.4 0.0 8.1 21.8 18.1 11.6 0.1 5.1 6.8 11.1 8.8 13.5 31.2 24.8 27.7 4.8 1.0 0.0 0.0 2.1 7.2 1.0 0.7 1.4
0.0 0.0 0.0 0.0 0.0 0.0 0.0 0.0 0.0 0.0 9.4 3.5 0.8 0.0 1.8 1.6 0.3 5.4 6.1 3.6 5.6 7.5 20.5 15.3 13.8 8.6 3.1 3.3 1.5 9.0 13.3 22.0 19.8 21.5 25.7 16.4 0.5 0.0 3.5 3.0 0.9 1.3 1.6 2.2
0.0 0.0 0.0 0.0 0.0 0.0 0.0 0.0 0.0 0.0 3.5 3.2 0.0 0.0 0.0 0.0 0.0 1.1 1.5 2.4 2.5 3.3 12.2 13.4 6.1 7.4 3.1 2.8 6.2 3.4 16.7 11.6 12.9 7.4 6.7 2.0 1.2 1.8 1.6 1.6 2.1 2.1 1.9 1.2
0.0 0.0 0.0 0.0 0.0 0.0 0.0 0.0 0.0 0.0 12.9 7.1 0.0 1.0 0.0 0.0 0.0 0.0 4.7 2.6 0.0 0.6 0.0 5.0 6.1 7.3 1.3 4.5 3.4 4.9 5.1 3.0 11.6 6.1 3.2 1.2 2.1 0.8 0.9 1.2 1.5 0.5 0.0 0.0
0.0 0.0 0.0 0.0 0.0 0.0 0.0 0.0 0.0 0.0 6.2 21.2 3.2 0.0 0.0 0.0 0.0 0.0 0.0 0.0 0.0 0.0 2.1 11.0 12.0 9.6 0.4 0.9 0.2 1.6 4.6 2.7 5.6 7.9 5.9 0.8 0.9 1.5 1.8 0.8 0.3 0.3 0.0 0.0
0.0 0.0 0.0 0.0 0.0 0.0 0.0 0.0 0.0 0.0 0.4 11.9 4.1 0.0 0.0 0.0 0.0 0.0 0.0 0.0 0.0 1.5 10.3 17.4 14.0 1.2 1.9 0.7 0.5 3.0 0.2 1.7 6.1 10.8 5.4 6.3 4.4 5.5 1.8 1.1 0.3 0.0 0.0 0.0
0.0 0.0 0.0 0.0 0.0 0.0 0.0 9.5 0.0 0.0 0.0 9.2 10.8 0.0 0.0 0.0 0.0 0.0 0.0 0.0 0.0 3.0 11.9 11.9 3.1 0.0 2.9 11.0 2.6 0.0 0.0 0.5 2.0 2.2 1.8 1.9 1.8 0.0 0.0 0.4 1.1 0.7 0.0 0.2
0.0 0.0 0.0 0.0 0.0 0.0 1.1 3.7 0.0 0.0 0.0 17.8 19.0 5.9 2.7 0.0 0.0 2.3 2.6 0.0 3.6 2.6 10.3 8.0 1.5 0.3 3.1 6.3 1.5 0.1 0.0 0.1 0.0 0.0 0.5 0.4 0.0 0.4 0.0 0.0 0.0 0.4 0.0 0.0
0.0 0.0 0.0 0.0 0.0 0.0 2.2 0.0 0.0 0.0 0.3 2.9 23.3 8.6 7.7 0.0 5.7 7.1 3.1 6.8 6.9 8.3 6.7 5.0 3.6 2.1 3.7 8.3 0.2 0.0 0.0 0.0 0.1 0.1 0.0 0.1 0.0 0.0 0.0 0.0 0.0 0.2 0.1 0.0
0.0 0.0 0.0 0.0 0.0 13.7 0.0 0.0 0.0 0.0 0.1 14.0 9.5 8.5 15.6 1.3 3.7 2.9 4.7 3.1 14.5 3.4 7.7 2.8 2.3 5.1 9.4 1.1 0.1 0.0 0.0 0.4 0.2 0.1 0.0 0.0 0.1 0.0 0.0 0.0 0.2 0.6 0.1 0.0
0.0 0.0 23.9 54.5 4.4 0.0 0.0 0.0 13.4 13.8 8.0 3.2 6.5 2.0 11.2 2.7 6.0 7.1 7.9 4.6 8.9 12.1 2.6 1.4 7.3 2.9 0.6 0.2 0.2 0.1 0.1 0.1 0.1 1.9 0.8 0.1 0.2 0.2 0.1 0.3 0.5 1.0 0.6 0.4
0.0 24.4 11.0 0.0 0.0 0.0 4.8 25.7 27.0 12.9 14.3 3.7 1.5 0.5 3.2 0.6 11.3 9.4 1.5 15.3 6.3 12.2 2.0 4.8 5.8 6.7 2.2 0.1 0.3 0.0 0.0 0.0 0.0 0.1 0.1 0.1 1.7 2.6 1.6 0.6 0.5 0.8 0.5 0.7
0.0 0.0 0.0 0.0 1.6 9.6 16.9 13.8 11.7 5.2 2.3 1.2 1.9 2.9 3.3 3.8 3.1 15.5 10.9 10.9 13.1 8.4 0.7 13.9 11.1 6.7 0.7 0.1 0.2 0.0 0.0 0.0 0.2 0.2 1.5 1.1 1.5 1.7 1.5 1.5 1.4 1.0 0.8 1.9
0.0 1.3 9.6 13.1 18.1 21.8 14.8 10.4 5.1 5.6 2.8 1.7 5.2 13.0 9.7 8.2 9.1 19.6 12.7 15.9 8.6 0.7 10.4 7.6 9.8 1.4 0.1 0.1 0.1 0.0 0.0 0.2 1.2 1.4 0.9 1.1 0.6 0.3 1.0 1.1 1.3 2.1 3.4 5.6
7.1 19.6 26.6 17.9 15.2 7.8 4.4 1.8 3.5 3.8 3.0 1.6 3.1 13.4 15.4 8.2 18.0 11.0 18.0 10.0 5.3 13.9 11.6 14.6 4.0 1.0 0.5 0.4 0.1 0.0 0.1 0.4 0.9 1.0 0.5 0.6 0.8 1.1 1.8 2.9 4.4 4.2 6.2 9.2
13.6 8.6 12.7 10.1 6.7 4.4 3.9 1.9 0.5 0.8 0.3 0.7 4.7 8.3 10.6 16.4 21.6 12.7 10.0 19.9 16.7 14.1 18.8 11.2 4.4 1.7 1.4 1.3 1.8 1.7 0.9 2.1 2.9 5.5 6.2 5.1 4.9 4.7 6.6 7.8 7.6 6.4 7.3 7.9
7.2 5.9 7.8 4.9 4.2 6.0 4.5 3.4 4.0 1.9 2.0 1.0 2.5 15.0 16.7 22.1 15.3 22.2 15.5 16.3 17.8 17.7 7.9 5.0 3.2 3.4 4.1 4.1 4.6 5.6 6.6 8.6 11.0 11.9 11.8 11.5 10.5 9.4 10.5 11.7 10.8 11.1 9.5 10.6
5.6 9.1 6.8 5.3 5.1 9.1 7.2 5.3 5.5 2.2 4.5 9.1 8.0 15.5 15.4 8.1 11.4 10.6 6.8 13.4 10.6 6.0 5.4 5.4 5.0 5.3 6.1 6.3 6.9 8.0 8.0 7.7 9.0 10.5 10.4 12.8 11.5 10.0 8.2 9.5 12.0 10.7 10.7 10.1

GFSNW_prec_kuchsnow_243.txt.gz
Snowfall_Accumulation
0.0 0.0 0.0 0.0 0.0 0.0 0.0 0.0 24.4 0.0 0.0 5.4 15.2 23.1 4.8 0.0 0.0 0.0 0.0 0.0 0.0 0.0 0.0 0.0 0.0 0.0 0.0 0.0 0.0 0.0 0.0 0.2 0.7 0.0 0.0 0.0 0.0 1.1 4.9 14.4 15.7 8.9 7.8 0.5
0.0 0.0 0.0 0.0 0.0 0.0 0.0 4.6 9.9 0.0 0.0 59.5 45.6 2.9 0.4 0.0 0.0 0.0 0.0 0.1 0.0 0.0 0.0 0.3 0.0 0.0 0.0 0.0 0.0 0.0 0.0 2.8 3.5 0.0 0.0 0.0 0.6 0.8 1.3 5.8 9.5 7.3 13.4 1.0
0.0 0.0 0.0 0.0 0.0 0.0 0.0 5.5 62.4 11.2 0.8 4.2 6.7 6.4 2.4 1.5 0.0 0.0 0.0 0.0 0.0 0.0 0.2 0.0 0.1 0.0 0.0 0.0 0.0 0.0 0.0 1.8 2.0 3.3 0.9 0.4 0.5 0.1 0.0 2.3 9.5 2.8 2.2 0.1
0.0 0.0 0.0 0.0 0.0 0.0 0.0 19.8 38.5 0.0 37.3 23.2 4.7 1.4 1.1 1.6 2.6 0.0 0.0 0.2 0.3 1.0 4.2 1.7 0.8 0.0 0.0 0.0 0.0 0.0 0.1 3.7 0.1 0.0 0.0 0.1 0.0 0.0 0.1 1.4 1.7 6.5 0.3 0.3
0.0 0.0 0.0 0.0 0.0 0.0 0.5 35.5 15.4 1.3 0.7 0.2 2.5 2.9 5.2 2.7 2.5 2.9 1.6 1.7 1.0 0.6 6.1 2.6 5.6 1.7 0.2 0.1 0.0 0.0 0.1 8.7 2.1 0.9 0.1 0.1 0.6 0.1 0.2 0.1 0.1 0.4 0.3 0.6
0.0 0.0 0.0 0.0 0.0 0.0 0.7 1.3 0.0 1.2 1.8 3.4 4.0 3.8 1.2 1.0 2.5 0.4 0.5 3.0 4.8 3.3 1.5 0.1 0.0 0.0 0.0 0.0 0.0 1.0 1.7 3.8 5.8 7.4 0.1 0.1 4.5 0.2 0.0 1.3 1.9 2.1 1.0 0.8
0.0 0.0 0.0 0.0 0.0 0.0 0.0 0.0 0.0 11.8 17.7 3.9 1.4 0.4 0.4 2.2 1.4 2.6 0.3 0.0 0.7 0.0 0.0 0.0 0.0 0.0 0.0 0.0 0.0 0.0 0.7 3.8 7.3 13.7 2.6 25.7 0.1 0.0 0.0 1.4 0.9 0.0 0.1 0.0
0.0 0.0 0.0 0.0 0.0 0.0 0.0 0.0 0.0 8.6 20.9 1.9 1.8 1.8 2.2 0.9 0.9 1.8 0.7 0.1 0.0 0.0 0.0 5.8 11.1 8.7 5.0 4.8 0.0 0.0 0.0 2.6 19.5 22.4 11.7 0.4 0.4 0.0 0.3 1.1 1.1 0.3 0.4 0.1
0.0 0.0 0.0 0.0 0.0 0.0 0.0 0.0 0.0 3.3 21.9 7.0 0.6 2.2 0.4 3.4 3.7 3.9 4.2 0.0 0.0 0.0 4.2 11.3 25.6 24.0 8.8 8.6 2.9 0.0 0.1 0.8 8.9 24.4 27.7 13.4 1.7 0.3 0.0 0.0 5.6 1.5 0.5 0.2
0.0 0.0 0.0 0.0 0.0 0.0 0.0 0.0 0.0 0.0 21.9 0.5 0.0 4.8 2.1 1.0 1.4 5.2 3.9 2.2 1.4 0.0 8.1 23.8 19.3 11.6 0.1 5.1 6.8 11.1 8.8 13.5 33.4 26.8 30.2 5.1 1.0 0.0 0.0 2.1 7.2 1.0 0.7 1.4
0.0 0.0 0.0 0.0 0.0 0.0 0.0 0.0 0.0 0.0 9.4 3.5 0.8 0.0 1.8 1.6 0.3 5.4 6.1 3.6 5.6 7.5 21.0 15.6 14.1 9.1 3.2 3.3 1.5 9.0 13.3 22.2 20.7 21.5 27.3 17.1 0.5 0.0 3.5 3.0 0.9 1.3 1.6 2.2
0.0 0.0 0.0 0.0 0.0 0.0 0.0 0.0 0.0 0.0 3.5 3.2 0.0 0.0 0.0 0.0 0.0 1.1 1.5 2.4 2.5 3.3 12.2 13.4 6.1 7.4 3.1 2.8 6.3 3.4 16.8 11.6 12.9 7.4 6.7 2.0 1.2 1.8 1.6 1.6 2.1 2.1 1.9 1.2
0.0 0.0 0.0 0.0 0.0 0.0 0.0 0.0 0.0 0.0 15.0 7.1 0.0 1.0 0.0 0.0 0.0 0.0 4.7 2.6 0.0 0.6 0.0 5.0 6.1 7.5 1.3 4.6 3.4 4.9 5.1 3.0 11.6 6.6 3.2 1.2 2.1 0.8 0.9 1.2 1.5 0.5 0.0 0.0
0.0 0.0 0.0 0.0 0.0 0.0 0.0 0.0 0.0 0.0 6.2 21.7 3.2 0.0 0.0 0.0 0.0 0.0 0.0 0.0 0.0 0.0 2.1 11.0 12.0 9.7 0.4 0.9 0.2 1.6 4.6 2.7 5.6 7.9 5.9 0.8 0.9 1.5 1.8 0.8 0.3 0.3 0.0 0.0
0.0 0.0 0.0 0.0 0.0 0.0 0.0 0.0 0.0 0.0 0.4 12.2 4.2 0.0 0.0 0.0 0.0 0.0 0.0 0.0 0.0 1.5 10.3 17.4 14.4 1.2 1.9 0.7 0.5 3.0 0.2 1.7 6.1 10.9 5.4 6.3 4.4 5.5 1.8 1.1 0.3 0.0 0.0 0.0
0.0 0.0 0.0 0.0 0.0 0.0 0.0 9.5 0.0 0.0 0.0 9.2 11.2 0.0 0.0 0.0 0.0 0.0 0.0 0.0 0.0 3.0 11.9 11.9 3.1 0.0 2.9 11.1 2.6 0.0 0.0 0.5 2.0 2.2 1.8 1.9 1.8 0.0 0.0 0.4 1.1 0.7 0.0 0.2
0.0 0.0 0.0 0.0 0.0 0.0 1.1 3.7 0.0 0.0 0.0 17.8 19.1 5.9 2.7 0.0 0.0 2.3 2.6 0.0 3.6 2.6 10.3 8.0 1.5 0.3 3.1 6.3 1.5 0.1 0.0 0.1 0.0 0.0 0.5 0.4 0.0 0.4 0.0 0.0 0.0 0.4 0.0 0.0
0.0 0.0 0.0 0.0 0.0 0.0 2.2 0.0 0.0 0.0 0.3 2.9 23.3 8.7 7.7 0.0 5.7 7.1 3.1 6.8 6.9 8.7 6.9 5.0 3.6 2.1 3.7 8.6 0.2 0.0 0.0 0.0 0.1 0.1 0.0 0.1 0.0 0.0 0.0 0.0 0.0 0.2 0.1 0.0
0.0 0.0 0.0 0.0 0.0 13.7 0.0 0.0 0.0 0.0 0.1 14.0 9.5 8.5 15.7 1.3 3.7 2.9 4.7 3.1 15.2 3.4 7.9 2.8 2.3 5.5 10.0 1.1 0.1 0.0 0.0 0.4 0.2 0.1 0.0 0.0 0.1 0.0 0.0 0.0 0.2 0.6 0.1 0.0
0.0 0.0 23.9 56.2 4.4 0.0 0.0 0.0 13.4 13.8 8.0 3.2 6.5 2.0 11.2 2.7 6.0 7.1 7.9 4.7 9.4 13.1 2.7 1.4 7.5 2.9 0.6 0.2 0.2 0.1 0.1 0.1 0.1 1.9 0.8 0.1 0.2 0.2 0.1 0.3 0.5 1.0 0.6 0.4
0.0 25.4 11.7 0.0 0.0 0.0 4.8 26.4 27.0 13.1 14.4 3.7 1.5 0.5 3.2 0.6 11.3 9.5 1.5 15.3 6.3 12.4 2.1 5.0 5.9 6.7 2.2 0.1 0.3 0.0 0.0 0.0 0.0 0.1 0.1 0.1 1.7 2.6 1.6 0.6 0.5 0.8 0.5 0.7
0.0 0.0 0.0 0.0 2.1 10.6 18.4 14.7 11.9 5.3 2.3 1.2 1.9 2.9 3.3 3.8 3.1 15.5 10.9 11.0 13.1 8.5 0.7 14.2 11.2 6.7 0.7 0.1 0.2 0.0 0.0 0.0 0.2 0.2 1.5 1.1 1.5 1.7 1.5 1.5 1.4 1.0 0.8 1.9
0.0 1.3 10.0 13.5 18.4 22.7 15.4 10.8 5.1 5.6 2.8 1.7 5.2 13.0 9.7 8.2 9.1 19.6 12.7 15.9 8.6 0.7 10.4 7.6 9.8 1.4 0.1 0.1 0.1 0.0 0.0 0.2 1.2 1.4 0.9 1.1 0.6 0.3 1.0 1.1 1.3 2.1 3.4 5.6
7.2 19.9 27.0 18.3 15.5 7.8 4.4 1.8 3.5 3.8 3.0 1.6 3.1 13.4 15.4 8.2 18.1 11.0 18.0 10.0 5.3 13.9 11.7 14.7 4.0 1.0 0.5 0.4 0.1 0.0 0.1 0.4 0.9 1.0 0.5 0.6 0.8 1.1 1.8 2.9 4.4 4.2 6.2 9.2
13.6 8.6 12.7 10.1 6.7 4.4 3.9 1.9 0.5 0.8 0.3 0.7 4.7 8.3 10.6 16.5 21.7 12.7 10.0 20.0 16.8 14.1 18.9 11.2 4.4 1.7 1.4 1.3 1.8 1.7 0.9 2.1 2.9 5.5 6.2 5.1 4.9 4.7 6.6 7.8 7.6 6.4 7.3 7.9
7.2 5.9 7.8 4.9 4.2 6.0 4.5 3.4 4.0 1.9 2.0 1.0 2.5 15.0 16.8 22.2 15.3 22.3 15.6 16.4 17.9 17.8 7.9 5.0 3.2 3.4 4.1 4.1 4.6 5.6 6.6 8.7 11.1 11.9 11.8 11.5 10.5 9.4 10.5 11.7 10.8 11.1 9.5 10.6
5.6 9.1 6.8 5.3 5.1 9.1 7.2 5.3 5.6 2.2 4.5 9.1 8.0 15.6 15.5 8.1 11.4 10.7 6.8 13.5 10.6 6.0 5.4 5.4 5.0 5.3 6.1 6.5 7.8 8.9 8.4 7.8 9.1 10.8 10.5 12.8 11.6 10.0 8.2 9.6 12.0 10.7 10.7 10.1

GFSNW_prec_kuchsnow_249.txt.gz
Snowfall_Accumulation
0.0 0.0 0.0 0.0 0.0 0.0 0.0 0.0 24.6 0.0 0.0 5.4 15.2 23.3 4.8 0.0 0.0 0.0 0.0 0.0 0.0 0.0 0.0 0.0 0.0 0.0 0.0 0.0 0.0 0.0 0.0 0.2 0.7 0.0 0.0 0.0 0.0 1.1 4.9 14.4 15.8 8.9 7.8 0.5
0.0 0.0 0.0 0.0 0.0 0.0 0.0 4.6 9.9 0.0 0.0 59.8 45.9 2.9 0.4 0.0 0.0 0.0 0.0 0.1 0.0 0.0 0.0 0.3 0.0 0.0 0.0 0.0 0.0 0.0 0.0 2.8 5.0 0.0 0.0 0.0 0.6 0.8 1.3 5.8 9.5 7.9 14.1 1.1
0.0 0.0 0.0 0.0 0.0 0.0 0.0 5.5 62.9 11.2 0.8 4.2 6.8 6.4 2.5 1.6 0.0 0.0 0.0 0.0 0.0 0.0 0.2 0.0 0.1 0.0 0.0 0.0 0.0 0.0 0.0 1.8 2.8 5.8 0.9 0.4 0.5 0.1 0.0 2.3 10.1 3.3 2.3 0.1
0.0 0.0 0.0 0.0 0.0 0.0 0.0 19.8 39.5 0.0 37.7 23.3 4.7 1.4 1.1 1.7 2.6 0.0 0.0 0.2 0.3 1.0 4.2 1.7 0.8 0.0 0.0 0.0 0.0 0.0 0.1 3.7 0.1 0.0 0.0 0.1 0.0 0.0 0.1 1.4 1.7 6.7 0.3 0.3
0.0 0.0 0.0 0.0 0.0 0.0 0.5 35.9 15.8 1.3 0.7 0.2 2.5 2.9 5.3 2.7 2.5 2.9 1.6 1.8 1.0 0.6 6.1 2.6 5.6 1.7 0.2 0.1 0.0 0.0 0.1 8.7 2.1 0.9 0.1 0.1 0.6 0.1 0.2 0.1 0.1 0.4 0.3 0.6
0.0 0.0 0.0 0.0 0.0 0.0 0.7 1.3 0.0 1.2 1.8 3.4 4.0 3.9 1.2 1.0 2.5 0.4 0.5 3.0 4.8 3.3 1.5 0.1 0.0 0.0 0.0 0.0 0.0 1.0 1.7 3.8 6.1 9.7 0.1 0.3 5.1 0.2 0.0 1.3 1.9 2.1 1.0 0.8
0.0 0.0 0.0 0.0 0.0 0.0 0.0 0.0 0.0 12.2 18.3 4.0 1.4 0.4 0.4 2.2 1.4 2.6 0.3 0.0 0.7 0.0 0.0 0.0 0.0 0.0 0.0 0.0 0.0 0.0 0.7 4.1 8.0 15.4 2.7 27.2 0.1 0.0 0.0 1.4 0.9 0.0 0.1 0.0
0.0 0.0 0.0 0.0 0.0 0.0 0.0 0.0 0.0 8.8 21.5 1.9 1.9 1.8 2.2 0.9 0.9 1.8 0.7 0.1 0.0 0.0 0.0 6.0 13.7 10.1 5.3 4.8 0.0 0.0 0.0 2.6 20.7 24.3 12.4 0.4 0.4 0.0 0.3 1.1 1.1 0.3 0.4 0.1
0.0 0.0 0.0 0.0 0.0 0.0 0.0 0.0 0.0 3.3 23.0 7.4 0.6 2.2 0.4 3.4 3.7 3.9 4.2 0.0 0.0 0.0 4.2 13.2 30.4 26.7 9.5 9.1 2.9 0.0 0.1 0.8 9.1 24.6 29.7 13.9 1.7 0.3 0.0 0.0 5.8 1.5 0.5 0.2
0.0 0.0 0.0 0.0 0.0 0.0 0.0 0.0 0.0 0.0 23.4 0.5 0.0 4.8 2.1 1.0 1.4 5.2 3.9 2.2 1.4 0.0 8.4 26.7 23.7 15.5 0.6 5.2 7.1 11.1 8.9 13.9 34.2 27.3 31.3 5.1 1.0 0.0 0.0 2.1 7.2 1.0 0.7 1.4
0.0 0.0 0.0 0.0 0.0 0.0 0.0 0.0 0.0 0.0 9.4 3.5 0.8 0.0 1.8 1.6 0.3 5.5 6.1 3.6 5.6 7.5 22.2 16.7 14.1 9.6 3.2 3.3 1.5 9.0 13.4 22.5 20.7 21.7 27.7 18.2 0.5 0.0 3.5 3.0 0.9 1.3 1.6 2.2
0.0 0.0 0.0 0.0 0.0 0.0 0.0 0.0 0.0 0.0 3.5 3.2 0.0 0.0 0.0 0.0 0.0 1.1 1.5 2.4 2.5 3.3 12.9 13.7 6.1 7.5 3.1 2.8 6.3 3.4 16.8 11.6 12.9 7.4 6.7 2.0 1.2 1.8 1.6 1.6 2.1 2.1 1.9 1.2
0.0 0.0 0.0 0.0 0.0 0.0 0.0 0.0 0.0 0.0 15.0 9.6 0.0 1.0 0.0 0.0 0.0 0.0 4.7 2.6 0.0 0.6 0.0 5.0 6.5 8.1 1.3 4.6 3.4 4.9 5.1 3.0 11.6 6.6 3.2 1.2 2.1 0.8 0.9 1.2 1.5 0.5 0.0 0.0
0.0 0.0 0.0 0.0 0.0 0.0 0.0 0.0 0.0 0.0 6.2 26.5 4.3 0.0 0.0 0.0 0.0 0.0 0.0 0.0 0.0 0.0 2.1 11.0 14.8 11.1 0.4 0.9 0.2 1.6 4.6 2.7 5.6 7.9 5.9 0.8 0.9 1.5 1.8 0.8 0.3 0.3 0.0 0.0
0.0 0.0 0.0 0.0 0.0 0.0 0.0 0.0 0.0 0.0 0.4 15.1 4.6 0.0 0.0 0.0 0.0 0.0 0.0 0.0 0.0 1.5 11.2 21.1 17.6 1.2 1.9 0.7 0.7 3.1 0.2 1.7 6.1 10.9 5.4 6.3 4.4 5.5 1.8 1.1 0.3 0.0 0.0 0.0
0.0 0.0 0.0 0.0 0.0 0.0 0.0 9.5 0.0 0.0 0.0 9.2 12.5 0.0 0.0 0.0 0.0 0.0 0.0 0.0 0.0 3.0 13.0 13.8 3.1 0.0 2.9 12.5 3.3 0.0 0.0 0.5 2.0 2.2 1.8 1.9 1.8 0.0 0.0 0.4 1.1 0.7 0.0 0.2
0.0 0.0 0.0 0.0 0.0 0.0 1.1 3.7 0.0 0.0 0.0 17.8 20.0 6.0 2.7 0.0 0.0 2.3 2.6 0.0 3.6 2.6 13.3 9.9 2.0 0.3 3.1 8.2 2.4 0.1 0.0 0.1 0.0 0.0 0.5 0.4 0.0 0.4 0.0 0.0 0.0 0.4 0.0 0.0
0.0 0.0 0.0 0.0 0.0 0.0 2.2 0.0 0.0 0.0 0.3 2.9 24.3 8.8 7.7 0.0 5.7 7.2 3.1 6.8 6.9 9.1 6.9 5.1 3.6 2.1 3.7 9.1 0.2 0.0 0.0 0.0 0.1 0.1 0.0 0.1 0.0 0.0 0.0 0.0 0.0 0.2 0.1 0.0
0.0 0.0 0.0 0.0 0.0 13.7 0.0 0.0 0.0 0.0 0.1 14.9 9.5 8.5 15.8 1.3 3.7 2.9 4.7 3.1 15.3 3.4 7.9 2.8 2.3 5.5 10.1 1.1 0.1 0.0 0.0 0.4 0.2 0.1 0.0 0.0 0.1 0.0 0.0 0.0 0.2 0.6 0.1 0.0
0.0 0.0 23.9 59.0 4.4 0.0 0.0 0.0 13.4 13.8 8.0 3.2 6.5 2.0 11.2 2.7 6.0 7.2 7.9 4.8 9.4 13.5 2.7 1.4 7.5 2.9 0.6 0.2 0.2 0.1 0.1 0.1 0.1 1.9 0.8 0.1 0.2 0.2 0.1 0.3 0.5 1.0 0.6 0.4
0.0 28.5 14.7 0.0 0.0 0.0 4.8 27.0 27.5 13.3 14.6 3.7 1.5 0.5 3.2 0.6 11.4 9.5 1.5 15.6 6.4 12.9 2.1 5.0 6.0 6.7 2.2 0.1 0.3 0.0 0.0 0.0 0.0 0.1 0.1 0.1 1.7 2.6 1.6 0.6 0.5 0.8 0.5 0.7
0.0 0.0 0.0 0.0 4.0 13.7 20.8 15.8 12.1 5.3 2.4 1.2 1.9 2.9 3.3 3.8 3.1 15.5 10.9 11.0 13.1 8.5 0.7 14.4 11.2 6.7 0.7 0.1 0.2 0.0 0.0 0.0 0.2 0.2 1.5 1.1 1.5 1.7 1.5 1.5 1.4 1.0 0.8 1.9
0.0 1.9 11.3 15.1 20.6 26.1 17.2 11.5 5.2 5.6 2.8 1.7 5.2 13.1 9.7 8.2 9.1 19.6 12.8 16.0 8.6 0.7 10.5 7.6 9.8 1.4 0.1 0.1 0.1 0.0 0.0 0.2 1.2 1.4 0.9 1.1 0.6 0.3 1.0 1.1 1.3 2.1 3.4 6.5
8.7 21.4 28.4 19.4 16.9 8.3 4.4 1.8 3.5 3.8 3.0 1.6 3.1 13.4 15.4 8.2 18.1 11.1 18.1 10.0 5.3 14.0 11.7 14.7 4.0 1.0 0.5 0.4 0.1 0.0 0.1 0.4 1.0 1.0 0.5 0.6 0.8 1.1 3.4 4.9 6.2 5.8 7.7 10.1
15.0 9.6 14.3 10.2 6.7 4.4 3.9 1.9 0.5 0.8 0.3 0.7 4.7 8.3 10.6 16.5 21.8 12.7 10.0 20.2 16.8 14.1 19.1 11.2 4.4 1.7 1.4 1.3 1.8 1.7 0.9 2.5 3.3 5.8 6.7 6.0 6.2 6.4 8.6 9.6 9.2 7.6 8.2 8.5
7.8 6.2 8.3 4.9 4.2 6.1 4.6 3.4 4.0 1.9 2.0 1.0 2.5 15.1 16.9 22.2 15.4 22.4 15.6 16.4 18.2 18.2 7.9 5.0 3.2 3.4 4.1 4.1 4.6 5.8 7.9 10.9 13.2 13.7 13.4 12.9 11.7 10.3 11.4 12.3 11.5 11.9 10.2 11.3
5.9 9.1 6.8 5.3 5.1 9.1 7.2 5.3 5.6 2.2 4.5 9.2 8.0 15.7 15.5 8.1 11.5 10.8 6.8 13.6 10.8 6.0 5.4 5.4 5.0 5.4 6.3 7.2 8.8 9.9 9.6 10.0 12.0 13.3 12.2 14.2 12.6 10.7 8.6 10.7 12.8 11.0 10.8 10.2

GFSNW_prec_kuchsnow_252.txt.gz
Snowfall_Accumulation
0.0 0.0 0.0 0.0 0.0 0.0 0.0 0.0 24.6 0.0 0.0 5.4 15.2 23.3 4.8 0.0 0.0 0.0 0.0 0.0 0.0 0.0 0.0 0.0 0.0 0.0 0.0 0.0 0.0 0.0 0.0 0.2 0.7 0.0 0.0 0.0 0.0 1.1 4.9 14.6 16.7 9.1 8.1 0.5
0.0 0.0 0.0 0.0 0.0 0.0 0.0 4.6 9.9 0.0 0.0 59.8 46.0 2.9 0.4 0.0 0.0 0.0 0.0 0.1 0.0 0.0 0.0 0.3 0.0 0.0 0.0 0.0 0.0 0.0 0.0 2.8 5.0 0.0 0.0 0.0 0.6 0.8 1.3 5.8 9.5 8.8 15.4 1.5
0.0 0.0 0.0 0.0 0.0 0.0 0.0 5.5 62.9 11.2 0.8 4.2 6.8 6.4 2.5 1.7 0.0 0.0 0.0 0.0 0.0 0.0 0.2 0.0 0.1 0.0 0.0 0.0 0.0 0.0 0.0 1.8 2.8 5.8 0.9 0.4 0.5 0.1 0.0 2.3 11.0 3.3 2.3 0.1
0.0 0.0 0.0 0.0 0.0 0.0 0.0 19.8 39.6 0.0 37.7 23.3 4.7 1.4 1.1 1.7 2.7 0.0 0.0 0.2 0.3 1.0 4.3 1.7 0.8 0.0 0.0 0.0 0.0 0.0 0.1 3.7 0.1 0.0 0.0 0.1 0.0 0.0 0.1 1.4 1.7 6.8 0.3 0.3
0.0 0.0 0.0 0.0 0.0 0.0 0.5 36.0 15.8 1.3 0.7 0.2 2.5 2.9 5.3 2.7 2.5 2.9 1.6 1.8 1.0 0.6 6.2 2.6 5.6 1.7 0.2 0.1 0.0 0.0 0.1 8.7 2.1 0.9 0.1 0.1 0.6 0.1 0.2 0.1 0.1 0.4 0.3 0.6
0.0 0.0 0.0 0.0 0.0 0.0 0.7 1.3 0.0 1.2 1.8 3.4 4.0 3.9 1.2 1.0 2.5 0.4 0.5 3.0 4.8 3.3 1.5 0.1 0.0 0.0 0.0 0.0 0.0 1.0 1.7 3.8 6.1 9.7 0.1 0.3 5.1 0.2 0.0 1.3 1.9 2.1 1.0 0.8
0.0 0.0 0.0 0.0 0.0 0.0 0.0 0.0 0.0 12.2 18.4 4.0 1.4 0.4 0.4 2.2 1.4 2.6 0.3 0.0 0.7 0.0 0.0 0.0 0.0 0.0 0.0 0.0 0.0 0.0 0.7 4.1 8.2 15.4 2.7 27.3 0.1 0.0 0.0 1.4 0.9 0.0 0.1 0.0
0.0 0.0 0.0 0.0 0.0 0.0 0.0 0.0 0.0 8.8 21.6 1.9 1.9 1.8 2.2 0.9 0.9 1.8 0.7 0.1 0.0 0.0 0.0 6.3 14.0 10.1 5.3 4.8 0.0 0.0 0.0 2.6 20.7 24.6 12.4 0.4 0.4 0.0 0.3 1.1 1.1 0.3 0.4 0.1
0.0 0.0 0.0 0.0 0.0 0.0 0.0 0.0 0.0 3.3 23.2 7.4 0.6 2.2 0.4 3.4 3.7 3.9 4.2 0.0 0.0 0.0 4.2 13.2 31.7 27.2 9.5 9.1 2.9 0.0 0.1 0.8 9.1 24.6 30.0 14.0 1.7 0.3 0.0 0.0 5.8 1.5 0.5 0.2
0.0 0.0 0.0 0.0 0.0 0.0 0.0 0.0 0.0 0.0 23.6 0.5 0.0 4.9 2.2 1.0 1.4 5.3 3.9 2.2 1.4 0.0 8.6 27.3 24.3 15.5 0.6 5.6 7.1 11.1 8.9 13.9 34.5 27.3 31.6 5.1 1.0 0.0 0.0 2.1 7.2 1.0 0.7 1.4
0.0 0.0 0.0 0.0 0.0 0.0 0.0 0.0 0.0 0.0 9.6 3.5 0.8 0.0 1.8 1.6 0.3 5.6 6.1 3.6 5.6 7.5 22.2 16.7 14.1 9.9 3.2 3.3 1.5 9.0 13.4 22.5 20.7 21.7 27.8 18.4 0.5 0.0 3.5 3.0 0.9 1.3 1.6 2.2
0.0 0.0 0.0 0.0 0.0 0.0 0.0 0.0 0.0 0.0 3.5 3.2 0.0 0.0 0.0 0.0 0.0 1.1 1.5 2.4 2.5 3.3 13.2 14.1 6.5 7.5 3.1 2.8 6.3 3.4 16.8 11.6 12.9 7.4 6.7 2.0 1.2 1.8 1.6 1.6 2.1 2.1 1.9 1.2
0.0 0.0 0.0 0.0 0.0 0.0 0.0 0.0 0.0 0.0 15.0 9.6 0.0 1.0 0.0 0.0 0.0 0.0 5.0 2.6 0.0 0.6 0.0 5.0 7.0 9.2 1.3 5.0 3.4 4.9 5.1 3.0 11.6 6.6 3.2 1.2 2.1 0.8 0.9 1.2 1.5 0.5 0.0 0.0
0.0 0.0 0.0 0.0 0.0 0.0 0.0 0.0 0.0 0.0 6.2 28.1 4.4 0.0 0.0 0.0 0.0 0.0 0.0 0.0 0.0 0.0 2.1 12.2 16.8 12.8 0.4 0.9 0.2 1.6 4.6 2.7 5.6 7.9 5.9 0.8 0.9 1.5 1.8 0.8 0.3 0.3 0.0 0.0
0.0 0.0 0.0 0.0 0.0 0.0 0.0 0.0 0.0 0.0 0.4 16.6 4.6 0.0 0.0 0.0 0.0 0.0 0.0 0.0 0.0 1.5 12.7 23.3 18.9 1.7 2.2 0.7 0.8 3.3 0.2 1.7 6.1 10.9 5.4 6.3 4.4 5.5 1.8 1.1 0.3 0.0 0.0 0.0
0.0 0.0 0.0 0.0 0.0 0.0 0.0 9.5 0.0 0.0 0.0 9.2 14.5 0.0 0.0 0.0 0.0 0.0 0.0 0.0 0.0 3.0 14.3 14.8 3.1 0.0 2.9 13.4 3.3 0.0 0.0 0.5 2.0 2.2 1.8 1.9 1.8 0.0 0.0 0.4 1.1 0.7 0.0 0.2
0.0 0.0 0.0 0.0 0.0 0.0 1.1 3.7 0.0 0.0 0.0 17.8 21.9 6.4 2.7 0.0 0.0 2.3 2.6 0.0 3.6 2.6 14.5 11.2 2.8 0.3 3.1 10.2 3.3 0.1 0.0 0.1 0.0 0.0 0.5 0.4 0.0 0.4 0.0 0.0 0.0 0.4 0.0 0.0
0.0 0.0 0.0 0.0 0.0 0.0 2.2 0.0 0.0 0.0 0.3 2.9 25.6 8.9 7.7 0.0 5.7 7.2 3.1 6.8 6.9 9.5 6.9 5.5 3.6 2.1 3.7 9.2 0.2 0.0 0.0 0.0 0.1 0.1 0.0 0.1 0.0 0.0 0.0 0.0 0.0 0.2 0.1 0.0
0.0 0.0 0.0 0.0 0.0 13.7 0.0 0.0 0.0 0.0 0.1 15.9 10.2 8.5 15.8 1.3 3.7 2.9 4.7 3.1 15.4 3.4 7.9 2.8 2.3 5.5 10.1 1.1 0.1 0.0 0.0 0.4 0.2 0.1 0.0 0.0 0.1 0.0 0.0 0.0 0.2 0.6 0.1 0.0
0.0 0.0 23.9 60.2 4.4 0.0 0.0 0.0 13.4 13.8 8.0 3.2 6.7 2.0 11.2 2.7 6.0 7.2 7.9 4.8 9.4 13.5 2.7 1.4 7.5 2.9 0.6 0.2 0.2 0.1 0.1 0.1 0.1 1.9 0.8 0.1 0.2 0.2 0.1 0.3 0.5 1.0 0.6 0.4
0.0 28.5 15.8 0.0 0.0 0.0 4.8 27.5 28.1 13.6 14.9 3.8 1.5 0.5 3.2 0.6 11.4 9.5 1.5 15.6 6.4 12.9 2.1 5.0 6.0 6.7 2.2 0.1 0.3 0.0 0.0 0.0 0.0 0.1 0.1 0.1 1.7 2.6 1.6 0.6 0.5 0.8 0.5 0.7
0.0 0.0 0.0 0.7 5.9 15.7 22.5 16.2 12.1 5.3 2.4 1.2 1.9 2.9 3.3 3.8 3.1 15.5 10.9 11.0 13.1 8.5 0.7 14.6 11.2 6.7 0.7 0.1 0.2 0.0 0.0 0.0 0.2 0.2 1.5 1.1 1.5 1.7 1.5 1.5 1.4 1.0 0.8 1.9
0.0 2.4 12.4 16.8 22.6 28.6 18.5 12.0 5.2 5.6 2.8 1.7 5.2 13.1 9.7 8.2 9.1 19.6 12.8 16.0 8.6 0.7 10.7 7.6 9.8 1.4 0.1 0.1 0.1 0.0 0.0 0.2 1.2 1.4 0.9 1.1 0.7 0.3 1.0 1.1 2.1 3.1 5.3 9.3
9.7 22.6 29.5 20.3 17.8 8.3 4.5 1.8 3.5 3.8 3.0 1.6 3.1 13.4 15.4 8.2 18.1 11.1 18.1 10.0 5.3 14.1 11.7 14.7 4.0 1.0 0.5 0.4 0.1 0.0 0.2 0.4 1.0 1.1 0.8 1.4 1.7 2.4 5.1 6.6 7.6 7.1 9.5 12.1
15.8 10.4 15.2 10.5 6.7 4.4 3.9 1.9 0.5 0.8 0.3 0.7 4.7 8.3 10.6 16.5 21.9 12.7 10.0 20.2 16.8 14.1 19.1 11.2 4.4 1.7 1.4 1.3 1.8 1.8 0.9 2.6 3.7 6.3 7.4 6.9 7.1 7.3 10.0 11.0 10.6 8.9 9.8 10.5
8.4 6.7 8.9 5.2 4.3 6.1 4.6 3.4 4.0 1.9 2.0 1.0 2.5 15.1 17.2 22.5 15.5 22.5 15.6 16.4 18.2 18.2 7.9 5.0 3.2 3.4 4.1 4.1 4.6 5.9 8.2 11.3 13.8 14.5 14.2 13.6 12.5 11.3 12.8 13.6 12.8 13.4 11.7 13.1
6.4 9.1 6.8 5.4 5.1 9.1 7.2 5.3 5.6 2.2 4.5 9.2 8.0 15.7 15.6 8.1 11.6 10.8 6.8 13.6 10.8 6.0 5.4 5.4 5.0 5.4 6.3 7.2 8.8 10.0 9.8 10.4 12.7 14.2 13.2 15.4 13.6 11.1 8.6 12.0 14.0 11.5 10.8 10.3

GFSNW_prec_kuchsnow_255.txt.gz
Snowfall_Accumulation
0.0 0.0 0.0 0.0 0.0 0.0 0.0 0.0 24.6 0.0 0.0 5.4 15.2 23.3 4.8 0.0 0.0 0.0 0.0 0.0 0.0 0.0 0.0 0.0 0.0 0.0 0.0 0.0 0.0 0.0 0.0 0.2 0.7 0.0 0.0 0.0 0.0 1.1 4.9 14.9 16.7 9.1 8.3 0.5
0.0 0.0 0.0 0.0 0.0 0.0 0.0 4.6 9.9 0.0 0.0 59.8 46.0 2.9 0.4 0.0 0.0 0.0 0.0 0.1 0.0 0.0 0.0 0.3 0.0 0.0 0.0 0.0 0.0 0.0 0.0 2.8 5.0 0.0 0.0 0.0 0.6 0.8 1.3 5.8 9.5 8.8 16.0 1.5
0.0 0.0 0.0 0.0 0.0 0.0 0.0 5.5 62.9 11.2 0.8 4.2 6.8 6.4 2.5 1.7 0.0 0.0 0.0 0.0 0.0 0.0 0.2 0.0 0.1 0.0 0.0 0.0 0.0 0.0 0.0 1.8 2.8 5.8 0.9 0.4 0.5 0.1 0.0 2.3 11.0 3.3 2.4 0.1
0.0 0.0 0.0 0.0 0.0 0.0 0.0 19.8 39.6 0.0 37.7 23.4 4.7 1.4 1.1 1.7 2.7 0.0 0.0 0.2 0.3 1.0 4.3 1.7 0.8 0.0 0.0 0.0 0.0 0.0 0.1 3.7 0.1 0.0 0.0 0.1 0.0 0.0 0.1 1.4 1.7 6.9 0.3 0.3
0.0 0.0 0.0 0.0 0.0 0.0 0.5 36.0 15.8 1.3 0.7 0.2 2.5 2.9 5.4 2.7 2.5 2.9 1.7 1.8 1.0 0.6 6.4 2.6 5.6 1.7 0.2 0.1 0.0 0.0 0.1 8.7 2.1 0.9 0.1 0.1 0.6 0.1 0.2 0.1 0.1 0.4 0.3 0.6
0.0 0.0 0.0 0.0 0.0 0.0 0.7 1.3 0.0 1.2 1.8 3.4 4.0 3.9 1.2 1.0 2.5 0.4 0.5 3.0 4.8 3.3 1.5 0.1 0.0 0.0 0.0 0.0 0.0 1.0 1.7 3.8 6.2 9.7 0.1 0.3 5.1 0.2 0.0 1.3 1.9 2.1 1.0 0.8
0.0 0.0 0.0 0.0 0.0 0.0 0.0 0.0 0.0 12.2 18.4 4.0 1.4 0.4 0.4 2.2 1.4 2.6 0.3 0.0 0.7 0.0 0.0 0.0 0.0 0.0 0.0 0.0 0.0 0.0 0.7 4.1 8.2 15.5 2.7 27.4 0.1 0.0 0.0 1.4 0.9 0.0 0.1 0.0
0.0 0.0 0.0 0.0 0.0 0.0 0.0 0.0 0.0 8.8 21.6 1.9 1.9 1.8 2.2 0.9 0.9 1.8 0.7 0.1 0.0 0.0 0.0 6.9 14.5 10.1 5.3 4.8 0.0 0.0 0.0 2.6 20.7 24.7 12.4 0.4 0.4 0.0 0.3 1.1 1.1 0.3 0.4 0.1
0.0 0.0 0.0 0.0 0.0 0.0 0.0 0.0 0.0 3.3 23.2 7.4 0.6 2.2 0.4 3.4 3.7 3.9 4.2 0.0 0.0 0.0 4.2 13.4 32.5 27.7 9.7 9.1 2.9 0.0 0.1 0.8 9.1 24.9 30.7 14.0 1.7 0.3 0.0 0.0 5.8 1.5 0.5 0.2
0.0 0.0 0.0 0.0 0.0 0.0 0.0 0.0 0.0 0.0 23.8 0.5 0.0 4.9 2.2 1.0 1.4 5.3 3.9 2.2 1.4 0.0 8.8 27.6 24.3 15.5 0.6 5.6 7.1 11.1 8.9 13.9 34.5 27.3 32.0 5.1 1.0 0.0 0.0 2.1 7.2 1.0 0.7 1.4
0.0 0.0 0.0 0.0 0.0 0.0 0.0 0.0 0.0 0.0 9.6 3.5 0.8 0.0 1.8 1.6 0.4 5.6 6.1 3.7 5.6 7.5 22.2 16.7 14.1 9.9 3.2 3.3 1.5 9.0 13.4 22.5 20.7 21.8 28.1 18.6 0.5 0.0 3.5 3.0 0.9 1.3 1.6 2.2
0.0 0.0 0.0 0.0 0.0 0.0 0.0 0.0 0.0 0.0 3.5 3.2 0.0 0.0 0.0 0.0 0.0 1.1 1.5 2.4 2.5 3.3 13.3 14.3 6.5 7.5 3.1 2.8 6.3 3.4 16.8 11.6 12.9 7.4 6.7 2.0 1.2 1.8 1.6 1.6 2.1 2.1 1.9 1.2
0.0 0.0 0.0 0.0 0.0 0.0 0.0 0.0 0.0 0.0 15.4 9.9 0.0 1.0 0.0 0.0 0.0 0.0 5.3 2.6 0.0 0.6 0.0 5.2 7.0 9.2 1.3 5.0 3.4 4.9 5.1 3.0 11.6 6.6 3.2 1.2 2.1 0.8 0.9 1.2 1.5 0.5 0.0 0.0
0.0 0.0 0.0 0.0 0.0 0.0 0.0 0.0 0.0 0.0 6.2 29.4 4.5 0.0 0.0 0.0 0.0 0.0 0.0 0.0 0.0 0.0 2.1 13.4 17.9 13.3 0.4 0.9 0.2 1.6 4.6 2.7 5.6 7.9 5.9 0.8 0.9 1.5 1.8 0.8 0.3 0.3 0.0 0.0
0.0 0.0 0.0 0.0 0.0 0.0 0.0 0.0 0.0 0.0 0.4 17.7 4.8 0.0 0.0 0.0 0.0 0.0 0.0 0.0 0.0 1.5 13.7 25.2 19.8 1.7 2.3 0.7 0.8 3.3 0.2 1.7 6.1 10.9 5.4 6.3 4.4 5.5 1.8 1.1 0.3 0.0 0.0 0.0
0.0 0.0 0.0 0.0 0.0 0.0 0.0 9.7 0.0 0.0 0.0 10.1 16.3 0.0 0.0 0.0 0.0 0.0 0.0 0.0 0.0 3.0 15.3 15.4 3.3 0.0 3.1 14.2 3.6 0.0 0.0 0.5 2.0 2.2 1.8 1.9 1.8 0.0 0.0 0.4 1.1 0.7 0.0 0.2
0.0 0.0 0.0 0.0 0.0 0.0 1.1 3.7 0.0 0.0 0.0 17.8 24.2 7.2 2.7 0.0 0.0 2.3 2.6 0.0 3.6 2.6 15.2 11.7 2.9 0.3 3.1 11.3 4.0 0.1 0.0 0.1 0.0 0.0 0.5 0.4 0.0 0.4 0.0 0.0 0.0 0.4 0.0 0.0
0.0 0.0 0.0 0.0 0.0 0.0 2.2 0.0 0.0 0.0 0.3 2.9 27.3 9.4 7.7 0.0 5.7 7.2 3.1 7.1 7.3 10.4 7.8 6.2 4.0 2.2 4.0 9.9 0.2 0.0 0.0 0.0 0.1 0.1 0.0 0.1 0.0 0.0 0.0 0.0 0.0 0.2 0.1 0.0
0.0 0.0 0.0 0.0 0.0 13.7 0.0 0.0 0.0 0.0 0.1 17.3 10.9 8.5 15.8 1.3 3.7 2.9 4.7 3.1 15.7 3.4 8.0 2.8 2.3 5.5 10.2 1.1 0.1 0.0 0.0 0.4 0.2 0.1 0.0 0.0 0.1 0.0 0.0 0.0 0.2 0.6 0.1 0.0
0.0 0.0 23.9 60.2 4.4 0.0 0.0 0.0 13.4 13.8 8.0 3.2 6.9 2.0 11.2 2.7 6.0 7.2 7.9 4.8 9.4 13.6 2.7 1.4 7.6 2.9 0.6 0.2 0.2 0.1 0.1 0.1 0.1 1.9 0.8 0.1 0.2 0.2 0.1 0.3 0.5 1.0 0.6 0.4
0.0 28.5 15.9 0.0 0.0 0.0 4.8 28.9 29.3 14.3 15.4 3.8 1.5 0.5 3.2 0.6 11.4 9.5 1.5 15.6 6.4 13.0 2.1 5.0 6.0 6.7 2.2 0.1 0.3 0.0 0.0 0.0 0.0 0.1 0.1 0.1 1.7 2.6 1.6 0.6 0.5 0.8 0.5 0.7
0.0 0.0 0.0 0.7 7.1 18.2 25.5 17.6 12.7 5.3 2.4 1.2 1.9 2.9 3.3 3.8 3.1 15.5 10.9 11.0 13.2 8.6 0.7 15.0 11.2 6.7 0.7 0.1 0.2 0.0 0.0 0.0 0.2 0.2 1.5 1.1 1.5 1.7 1.5 1.6 1.6 1.6 1.7 2.8
0.0 2.4 12.7 17.3 24.0 31.2 20.1 12.6 5.3 5.6 2.8 1.7 5.2 13.1 9.7 8.2 9.1 19.6 12.8 16.1 8.7 0.7 10.8 7.6 9.8 1.4 0.1 0.1 0.1 0.0 0.0 0.2 1.2 1.4 0.9 1.1 0.9 0.6 1.5 2.1 3.8 4.6 6.6 10.5
10.2 23.2 30.1 20.9 19.0 8.3 4.5 1.8 3.5 3.8 3.0 1.6 3.1 13.4 15.4 8.2 18.1 11.1 18.2 10.0 5.3 14.1 11.8 14.7 4.0 1.0 0.5 0.4 0.1 0.0 0.2 0.4 1.0 1.1 1.0 1.6 2.2 3.1 5.8 7.7 9.1 8.4 10.9 13.8
16.6 10.9 15.6 10.5 6.7 4.4 3.9 1.9 0.5 0.8 0.3 0.7 4.7 8.3 10.6 16.5 22.0 12.7 10.0 20.2 16.8 14.1 19.1 11.2 4.4 1.7 1.4 1.3 1.8 1.8 0.9 2.6 4.0 6.6 7.8 7.5 7.8 8.0 11.3 12.5 11.8 10.1 11.5 12.4
9.0 6.9 9.0 5.2 4.3 6.1 4.6 3.4 4.0 1.9 2.0 1.0 2.5 15.1 17.3 22.5 15.5 22.6 15.6 16.5 18.2 18.2 7.9 5.0 3.2 3.4 4.1 4.1 4.6 5.9 8.2 11.6 14.1 14.9 14.9 14.5 13.8 12.7 14.1 14.6 13.9 14.6 12.9 14.6
6.4 9.1 6.8 5.4 5.1 9.1 7.2 5.3 5.6 2.2 4.5 9.2 8.0 15.7 15.6 8.2 11.8 10.9 6.8 13.6 10.8 6.0 5.4 5.4 5.0 5.4 6.3 7.2 8.8 10.0 9.9 10.4 12.7 14.8 14.1 16.7 15.0 11.7 8.7 12.4 14.4 11.8 11.0 10.5